Location: Sabalos
(43.2860°N, 0.1414°E)
Time: 10:54:53
(UTC+00:00)

GP-B - Pass Details

Date: 05 July 2020
Orbit: 631 x 635 km, 89.8° (Epoch: 06 August)

Event Time Altitude Azimuth Distance (km) Brightness Sun altitude
Rises 23:42:00 0° 358° (N) 2,939 8.0 -23.9°
Reaches altitude 10° 23:44:14 10° 355° (N) 2,025 6.8 -23.9°
Maximum altitude 23:48:38 63° 276° (W) 710 3.3 -24.0°
Enters shadow 23:48:51 62° 259° (W) 715 3.2 -24.0°
